Theta_e
329 331 335 335 336 335 333 332 331 331 331 330 329 328 328 329 329 328 327 328 328 328 328 327 327 327 328 328 329 329 329 329 328 326 324 325 324 325 328 328 328 330 331 330 329 324 320 318 321 327 331 333 335 335 335 335 334 335 336 337 336 335 335
333 335 335 335 334 334 331 330 330 331 330 328 326 326 326 326 326 326 326 326 326 325 325 324 324 324 325 324 325 325 326 326 326 326 324 323 323 322 323 323 324 324 325 326 328 328 322 319 319 321 323 327 332 334 335 335 334 334 336 336 336 335 334
334 334 334 332 332 331 329 329 328 328 327 327 326 324 325 324 324 324 324 323 324 323 323 323 323 323 324 323 324 324 325 323 324 324 322 322 322 322 322 321 320 320 320 320 321 321 321 323 319 320 322 322 320 323 333 335 336 336 336 337 337 335 335
334 334 331 329 329 328 326 326 326 325 325 324 325 324 324 324 324 324 323 322 323 323 322 321 321 321 321 322 324 324 322 321 320 320 320 321 321 321 321 320 319 319 318 316 317 318 318 317 317 318 320 322 322 321 325 328 333 337 337 336 336 335 334
330 328 327 326 325 324 325 325 327 326 323 324 324 322 322 322 323 323 322 322 321 320 319 320 320 319 319 321 321 320 319 319 318 317 318 318 318 318 318 319 318 319 318 317 318 319 318 317 317 316 317 319 319 321 324 326 329 328 328 329 335 335 336
327 327 326 325 325 324 325 325 324 322 322 320 320 319 320 321 321 320 320 319 319 319 319 318 319 319 318 320 319 318 318 316 315 316 316 316 317 315 315 317 317 317 317 319 320 318 318 318 317 314 316 317 315 316 319 321 322 326 327 325 327 336 337
324 324 324 323 323 323 323 322 321 321 319 319 318 319 320 320 320 320 319 318 318 318 318 318 318 318 318 318 317 316 316 316 316 317 316 316 317 316 317 315 315 316 317 318 317 317 315 314 313 312 313 314 315 315 318 319 321 320 322 326 327 326 334
323 322 322 323 322 321 322 320 321 320 319 318 318 320 319 319 319 319 318 318 318 318 317 317 318 317 318 317 316 316 315 314 315 316 316 316 315 315 316 315 315 315 316 317 317 316 316 315 315 314 313 310 311 313 313 316 316 317 318 322 326 327 328
322 321 321 321 321 322 321 320 319 320 319 320 320 319 318 318 318 318 317 316 317 316 316 316 316 315 316 315 315 314 312 315 314 314 314 314 315 315 315 315 314 314 316 315 315 315 315 316 316 316 314 312 309 306 310 310 312 313 318 317 321 324 327
321 320 319 320 320 320 320 319 319 318 319 319 318 320 319 319 318 318 317 317 317 316 316 316 315 315 315 314 313 312 311 312 313 313 314 314 315 315 314 314 313 314 313 313 313 313 313 313 313 312 311 309 309 306 305 305 307 309 313 317 315 319 323
319 319 320 319 320 319 319 319 319 318 317 318 318 318 319 318 317 317 316 315 315 315 314 314 314 314 313 312 312 311 311 312 312 313 313 313 313 313 313 312 312 311 311 311 311 311 311 310 309 308 308 308 308 305 305 303 304 309 310 314 315 315 318
319 319 319 319 319 317 317 317 317 317 317 317 317 318 316 315 315 314 313 312 312 312 313 313 314 313 313 312 312 311 311 312 311 311 312 312 312 311 310 309 310 309 309 309 309 308 309 308 307 306 305 306 306 305 304 303 301 306 309 307 310 314 314
317 317 317 317 316 316 316 316 316 315 316 316 316 315 314 312 312 311 310 310 309 310 309 311 312 312 312 311 311 310 310 310 309 310 310 311 311 310 309 308 308 307 307 307 306 306 306 305 305 304 304 304 304 304 304 302 300 300 305 306 308 310 312
316 316 316 317 316 316 316 315 315 315 315 315 315 313 312 310 309 309 308 308 307 307 307 308 309 310 310 310 310 310 310 309 308 308 309 308 309 308 307 307 306 306 306 305 304 304 303 303 303 303 303 303 302 302 302 301 299 299 303 306 306 307 309
315 316 316 316 316 315 315 315 315 314 314 314 313 310 310 310 309 308 307 305 305 305 306 306 307 309 309 309 309 310 309 308 307 307 307 306 306 307 306 305 305 305 305 303 303 302 302 301 301 301 301 301 301 301 302 300 300 299 298 302 303 306 306
315 315 315 315 315 314 314 314 314 313 312 311 311 310 309 308 307 306 305 305 304 304 304 305 306 307 308 308 307 308 308 307 306 305 305 304 304 305 304 303 303 304 304 302 302 301 301 300 300 300 299 300 300 300 301 301 299 298 298 299 302 302 304
315 315 314 314 313 313 314 313 313 312 311 310 309 309 308 306 306 305 304 304 303 303 303 304 305 306 307 308 306 306 306 306 306 305 304 304 304 303 303 302 302 303 302 301 301 300 300 300 299 299 298 299 299 299 300 300 300 298 298 298 300 301 304
313 313 313 313 313 313 313 312 312 310 311 310 309 308 308 306 305 304 304 302 302 302 302 302 303 304 305 307 306 306 305 305 305 304 304 304 305 303 302 302 302 302 301 300 300 299 299 299 299 298 297 298 298 299 299 300 300 300 299 298 299 302 304
312 312 312 312 312 312 312 311 310 310 309 308 308 307 307 306 304 303 302 302 302 301 301 301 300 301 302 305 306 306 305 305 305 304 303 303 303 303 302 302 302 301 301 299 299 299 299 298 298 297 297 297 298 299 298 299 300 300 300 299 300 300 303
312 312 312 312 312 311 311 311 310 309 309 308 307 306 305 305 305 303 302 302 301 301 300 300 299 299 301 302 304 306 305 304 304 304 303 303 303 302 302 302 302 301 301 300 299 298 298 297 296 296 297 297 298 298 298 298 299 299 300 299 300 301 302
311 311 310 310 310 310 310 309 309 309 309 308 307 305 305 304 304 303 303 301 301 301 300 299 297 297 299 300 302 305 304 303 303 303 303 302 302 301 301 301 301 301 301 300 300 299 297 296 295 295 296 297 297 297 297 298 299 298 298 298 298 299 300
310 310 309 309 308 308 308 308 308 308 308 308 308 306 305 304 303 302 302 301 300 300 299 298 296 295 296 297 300 303 304 303 302 302 301 301 301 301 301 301 301 302 302 304 302 300 298 297 296 294 295 296 297 297 297 298 299 298 297 297 297 298 297
308 308 307 307 307 307 307 308 308 307 307 307 307 307 305 304 302 301 301 300 300 299 298 297 296 294 294 295 298 301 305 303 302 301 301 301 300 301 300 300 302 304 302 302 300 297 296 296 297 297 296 296 297 297 297 297 298 297 296 295 294 295 295
307 307 307 307 307 307 307 308 307 307 307 307 307 307 305 303 302 301 300 299 298 299 297 295 293 292 292 293 297 299 304 303 303 302 301 300 299 299 299 300 300 302 301 301 298 296 295 295 295 295 296 297 299 298 297 297 297 296 295 294 294 294 294
306 306 306 306 306 306 307 307 306 307 307 306 307 307 306 304 303 302 300 299 298 297 296 294 291 292 292 292 294 297 304 304 304 302 301 300 300 299 298 299 300 300 300 300 298 295 296 296 296 296 296 296 296 296 295 296 295 294 294 293 293 293 293
305 305 305 305 306 306 305 305 305 305 306 307 307 306 305 305 303 302 300 298 297 296 295 293 291 292 292 292 292 295 303 305 304 303 302 301 300 299 298 299 299 299 299 301 299 295 295 295 297 298 298 298 298 297 294 293 294 297 296 295 294 293 293
304 305 305 305 305 305 304 304 305 305 305 306 306 306 306 305 303 302 300 299 297 296 295 293 291 292 292 291 292 294 305 306 305 302 302 302 300 299 298 298 297 297 298 298 297 295 294 295 296 298 298 299 299 299 297 296 295 295 296 296 294 293 295
304 304 304 305 305 304 304 305 305 305 305 305 305 304 304 304 303 302 301 300 298 297 296 292 291 291 292 292 293 297 306 306 305 303 302 302 301 299 298 298 297 297 297 297 297 294 293 293 296 298 297 297 298 298 299 298 298 298 297 297 296 295 296
304 304 304 304 304 304 304 304 304 304 304 304 304 305 305 305 304 302 301 300 298 296 295 292 291 292 292 291 294 303 306 303 302 303 302 302 301 300 299 297 296 296 296 296 296 292 292 293 295 297 296 297 297 298 298 299 296 296 298 297 297 296 296
303 304 304 303 303 303 304 304 304 305 303 303 303 302 303 302 303 303 302 300 298 296 295 293 291 292 292 291 295 302 304 302 301 301 301 302 301 300 300 298 296 295 295 295 294 290 291 292 294 296 296 296 296 297 297 299 298 296 296 295 295 294 294
303 303 303 303 303 304 304 305 305 305 304 303 302 301 301 300 301 301 301 300 299 297 296 295 292 292 292 292 295 300 302 301 302 301 300 301 301 302 301 302 301 296 295 295 292 290 291 293 294 295 295 295 295 295 296 298 299 299 297 297 296 295 295
302 302 302 302 303 303 304 304 305 306 306 305 304 303 302 300 300 300 300 301 303 299 298 297 293 292 292 292 295 299 300 299 298 299 300 299 300 299 299 301 300 297 295 294 291 291 291 292 293 294 295 295 294 293 294 296 298 297 298 298 298 298 298
302 302 302 303 303 303 304 304 305 305 305 303 303 303 303 302 300 299 300 300 301 301 300 299 296 292 292 292 292 298 298 296 296 296 299 298 298 297 297 297 298 294 292 291 291 290 291 291 292 294 295 294 293 292 294 295 298 298 297 297 297 298 298
303 303 303 303 304 304 305 306 307 306 304 304 303 303 303 304 303 302 302 301 300 301 301 300 299 291 292 292 291 294 297 296 295 296 298 298 297 296 296 296 297 295 292 291 291 291 291 291 291 294 296 294 292 292 292 294 298 298 297 297 297 297 298
304 304 304 304 304 303 305 306 306 305 304 304 304 304 304 303 302 303 303 302 301 300 300 300 299 294 292 292 292 291 296 297 296 297 297 298 297 297 296 296 296 295 292 291 290 291 291 291 291 296 295 291 290 290 294 296 298 297 296 296 296 296 296
303 304 304 304 304 304 304 305 305 305 305 305 304 304 304 304 303 303 303 303 302 300 300 298 295 297 293 292 292 291 291 294 291 298 296 297 297 297 298 298 298 297 292 291 291 291 291 291 294 294 290 291 291 291 295 296 296 295 295 295 295 295 295
303 304 304 304 303 303 303 303 304 304 304 303 302 302 302 303 303 302 301 301 301 302 302 300 295 293 295 292 292 291 290 291 291 294 297 299 297 297 297 297 296 292 291 290 291 292 292 293 293 291 291 291 292 294 295 295 295 294 294 294 294 294 294
Wind_Speed
3 3 3 4 4 4 5 5 5 6 5 6 7 8 7 7 7 7 7 6 7 7 6 6 6 7 6 6 6 6 5 5 6 7 8 8 8 8 8 8 9 7 4 5 5 5 7 9 12 5 4 4 5 6 7 6 6 6 7 6 6 6 5
7 3 3 4 4 5 5 6 5 4 5 7 7 7 7 8 7 6 5 5 6 6 6 6 6 7 7 7 7 7 6 6 6 6 6 6 8 8 9 9 9 8 9 8 7 3 6 8 8 8 10 7 5 5 6 6 7 7 7 7 7 6 6
3 4 4 5 4 4 6 5 5 5 5 5 6 7 7 7 6 6 6 7 6 5 5 5 6 5 5 6 5 6 6 7 5 7 7 7 6 7 8 8 8 9 9 8 8 10 9 7 8 10 10 12 11 6 5 6 5 5 5 5 5 6 6
3 3 4 4 4 5 5 5 4 4 5 5 5 5 5 5 5 5 4 5 4 5 6 6 5 7 7 6 4 7 9 9 9 9 8 8 8 7 8 7 8 8 8 9 10 10 9 8 11 11 11 10 10 11 8 9 4 5 7 7 7 7 7
5 4 4 5 5 5 5 3 3 4 5 4 4 5 4 5 5 4 5 5 5 6 6 6 5 6 6 6 7 7 7 8 9 9 7 9 10 9 10 9 8 8 8 7 8 8 8 9 9 10 10 10 11 9 10 10 11 10 6 6 9 8 8
4 4 4 5 5 4 2 2 4 4 5 5 5 5 4 4 3 4 4 5 5 5 5 5 5 6 6 4 6 6 6 8 6 6 6 8 8 8 8 7 7 7 7 7 7 8 8 9 9 10 10 10 10 10 10 11 9 8 8 9 2 6 7
5 6 5 6 5 4 4 5 5 5 5 5 5 3 3 4 3 4 5 5 4 4 4 5 5 6 5 6 6 7 7 5 5 5 5 6 5 7 6 6 7 6 6 7 8 8 9 9 9 10 11 9 9 10 8 8 9 9 8 8 9 7 4
6 6 6 5 5 4 4 5 4 4 4 4 3 2 4 4 4 4 4 4 4 4 5 5 6 5 5 5 5 6 7 6 7 5 4 4 6 7 7 6 6 5 5 5 6 6 7 6 7 8 9 12 11 9 9 8 8 8 10 9 10 10 10
5 5 4 4 5 4 4 4 5 4 3 3 2 4 3 4 3 3 4 5 5 5 5 6 6 6 6 6 5 7 7 5 6 7 6 6 5 5 5 6 5 6 6 7 8 9 9 8 8 8 9 10 11 13 10 10 9 9 9 10 10 10 10
6 6 5 7 5 4 4 4 4 3 3 3 3 2 3 2 3 3 3 4 4 4 5 5 6 6 6 6 7 7 6 6 6 6 6 6 4 4 5 6 6 6 9 9 8 9 9 9 9 10 10 10 10 11 10 11 10 11 11 10 11 10 10
6 6 7 7 6 5 5 4 3 4 4 3 3 3 2 3 3 4 3 5 5 6 7 6 6 7 6 6 6 6 6 6 5 4 5 7 7 7 7 8 8 8 10 10 9 10 9 9 10 10 10 10 10 10 10 12 11 9 11 10 11 12 12
5 5 5 6 5 6 5 5 5 5 5 4 3 2 3 3 3 4 5 5 5 6 6 6 5 5 5 4 5 4 4 4 4 5 5 6 6 7 9 9 9 9 10 9 10 10 10 10 10 10 9 9 9 9 10 10 12 9 9 12 12 12 14
8 7 7 5 5 5 6 6 6 5 4 4 3 3 4 5 5 5 6 6 6 6 7 7 6 6 5 5 5 5 5 5 6 6 6 6 6 7 8 9 10 9 10 9 10 10 10 10 10 10 10 9 9 9 9 10 11 15 10 11 12 14 15
8 7 6 6 5 6 6 6 5 4 4 3 3 4 5 6 6 6 7 7 8 7 8 8 7 6 6 5 5 5 6 7 8 8 8 9 9 9 9 10 11 12 11 11 10 10 10 11 11 9 9 9 9 9 10 11 13 14 12 9 10 12 14
8 7 7 6 6 6 6 5 5 5 5 4 5 6 6 5 5 7 7 8 9 9 9 9 7 6 6 6 6 6 7 8 8 9 8 10 11 9 10 11 12 11 10 11 10 11 11 11 12 12 11 10 11 10 10 11 12 13 16 13 11 10 13
8 7 7 6 6 7 6 6 6 5 5 5 5 5 6 6 7 8 8 9 9 9 10 8 7 7 6 6 8 7 7 8 9 9 10 10 10 9 10 9 11 10 8 10 10 10 11 12 12 13 13 12 12 12 12 11 12 13 15 15 13 13 12
7 7 7 6 7 6 6 6 6 6 6 5 6 5 6 8 8 8 9 10 10 10 9 8 8 7 7 7 7 8 8 8 9 9 9 9 9 9 9 9 10 10 11 11 11 11 12 12 12 12 13 13 12 13 12 11 12 11 12 15 14 14 12
7 7 7 6 7 6 6 6 5 7 5 5 6 5 6 7 8 9 9 10 10 10 10 9 8 8 8 5 7 7 8 8 8 8 8 9 11 9 10 9 10 11 11 11 11 12 12 15 12 12 13 12 12 12 11 12 12 12 13 15 15 12 12
8 8 7 7 7 6 6 6 6 6 6 7 6 6 7 7 8 9 10 10 10 10 10 9 10 10 10 10 9 7 8 8 8 7 9 10 10 10 10 10 10 10 11 11 12 12 12 14 13 13 14 13 12 12 13 13 13 12 12 13 13 15 12
7 7 6 6 6 6 6 6 6 6 5 6 6 6 7 8 7 9 10 10 10 10 9 9 9 9 9 10 9 7 8 7 8 7 9 9 10 10 10 9 9 9 11 11 12 12 12 14 13 14 13 12 11 12 12 12 12 13 11 13 13 12 12
7 7 6 7 7 7 7 6 6 5 6 6 6 7 8 8 7 8 9 10 10 8 8 9 9 8 8 7 7 7 7 7 8 7 7 9 9 9 8 8 8 10 11 10 11 10 10 10 11 13 12 11 11 12 12 11 12 11 13 13 13 13 12
7 7 8 7 7 7 7 6 6 6 5 5 5 7 8 8 9 9 10 9 10 8 7 7 6 7 7 8 7 7 6 8 7 7 7 7 7 8 8 8 8 10 13 18 17 16 16 13 10 11 12 11 11 11 11 10 10 10 11 12 13 12 14
8 8 8 8 7 7 7 6 6 6 6 6 6 6 7 8 9 9 9 10 8 7 6 5 8 10 7 5 6 6 3 6 6 6 6 5 6 7 8 8 9 16 16 16 18 18 16 15 15 11 10 10 11 9 9 10 10 10 10 11 13 14 14
8 9 8 7 7 8 7 6 6 7 6 6 5 5 6 8 8 9 10 9 9 7 6 7 14 13 14 12 7 6 3 5 4 4 5 5 7 8 7 8 7 11 12 14 15 18 16 15 15 16 15 12 11 12 10 10 9 10 12 11 13 13 13
9 9 8 8 8 8 7 7 7 6 6 6 5 4 6 7 8 8 8 9 9 7 6 12 14 15 15 15 10 6 3 3 2 3 3 5 7 7 8 7 6 5 8 13 13 13 15 16 18 16 15 14 14 15 16 11 11 13 12 11 12 13 13
9 8 8 8 7 7 8 8 7 6 6 5 5 5 6 7 7 8 8 9 8 8 7 12 14 15 15 15 15 9 2 3 3 3 3 6 7 7 7 7 7 7 7 16 12 12 12 12 15 16 16 15 16 18 13 14 13 11 11 12 12 12 12
9 8 8 7 7 8 8 8 6 5 5 5 5 5 5 6 7 7 7 8 7 8 7 11 14 15 14 16 15 11 2 3 3 4 5 7 5 6 7 7 6 7 7 8 9 11 12 12 12 11 12 12 12 14 13 15 14 14 13 10 12 12 13
9 9 8 8 7 8 7 6 6 4 4 5 4 4 4 5 6 7 7 7 7 7 7 13 14 16 15 16 16 12 1 3 3 4 5 6 5 6 5 6 6 6 7 8 9 10 9 12 11 10 10 11 11 10 11 11 11 10 9 9 11 12 13
9 8 8 8 8 7 6 6 6 5 5 5 5 4 4 4 5 7 7 7 6 8 9 14 14 16 17 17 16 9 2 4 4 3 5 5 4 5 4 6 6 6 7 8 12 15 11 9 10 9 9 8 8 8 10 10 11 12 12 12 11 12 12
9 9 9 9 8 7 6 5 5 4 5 5 5 5 4 5 6 6 6 6 6 7 8 12 14 15 16 17 12 8 4 4 4 5 5 4 5 3 3 5 6 7 8 8 13 15 13 9 8 10 9 9 10 9 9 10 13 15 15 15 16 18 17
9 9 8 9 8 6 5 4 4 4 4 5 5 5 5 6 6 6 5 6 6 6 6 9 12 13 15 17 13 8 5 6 7 6 5 4 4 2 2 10 10 8 9 10 14 15 15 9 8 9 11 11 13 11 9 9 9 11 16 16 16 17 17
8 8 8 8 7 6 5 4 3 3 4 4 5 6 6 5 5 5 5 4 6 6 5 6 10 11 13 14 12 7 7 7 7 8 4 5 4 4 4 5 10 12 11 14 18 16 17 11 7 9 10 11 13 13 10 10 10 14 15 15 15 16 14
8 8 8 7 6 6 4 4 4 4 3 3 4 4 4 5 5 5 4 4 4 4 3 3 5 9 10 11 13 8 6 7 7 8 6 5 4 5 4 5 7 12 16 17 18 18 18 17 9 9 8 9 11 14 12 9 10 12 13 14 14 14 13
8 8 7 7 6 5 4 3 3 3 4 4 4 4 4 3 4 4 4 4 4 3 2 3 3 6 7 9 11 9 6 6 6 7 7 5 4 4 5 5 5 11 15 17 18 18 18 18 14 9 8 9 10 14 13 5 8 13 11 13 13 13 12
7 7 7 6 6 5 4 3 3 4 4 3 4 4 4 4 4 3 4 5 5 4 4 6 3 4 5 7 8 8 5 5 6 5 7 5 5 4 4 5 6 10 15 17 17 17 17 15 16 7 11 15 17 17 14 6 5 9 9 11 12 12 13
7 6 6 6 6 5 4 4 4 4 4 3 3 3 3 3 3 3 3 4 6 6 4 6 10 6 7 7 7 7 8 5 10 6 5 5 5 6 6 7 8 14 16 17 16 17 15 15 13 11 17 17 15 15 14 8 8 10 10 10 11 13 13
8 7 7 6 5 5 5 5 5 5 5 5 4 5 4 4 3 3 3 3 3 3 4 4 9 11 9 11 7 7 8 9 10 8 6 3 5 7 7 8 11 16 15 14 15 16 13 13 13 16 15 18 14 14 10 11 9 11 11 11 12 12 13
Wind_Direction
261 184 143 95 77 77 82 79 65 51 52 45 42 29 24 26 22 26 20 14 11 359 358 19 5 11 9 7 3 358 354 2 357 0 354 355 350 338 352 343 343 328 303 265 260 283 287 303 311 306 281 287 217 230 226 227 227 227 228 222 223 217 209
216 146 101 75 77 79 90 78 83 79 67 52 43 33 25 25 21 16 19 21 13 13 5 14 10 8 5 8 4 355 360 10 3 360 356 355 353 347 345 345 339 340 337 339 329 325 324 311 300 320 322 305 273 242 235 224 222 221 221 221 217 220 213
146 88 85 100 90 88 80 75 63 63 56 57 59 40 32 32 23 19 19 25 22 11 16 6 7 0 1 13 358 352 4 15 0 6 6 354 355 351 350 340 342 339 342 343 347 349 339 330 322 323 324 326 320 312 278 246 240 227 221 214 193 202 214
79 101 125 101 100 78 76 69 74 74 65 53 46 56 35 29 33 26 15 24 29 9 17 9 356 11 13 344 355 11 18 14 21 8 1 360 357 350 349 354 347 349 346 340 340 339 333 327 328 322 323 325 328 324 329 326 280 229 217 215 210 206 206
65 76 69 87 83 75 65 105 137 121 97 87 63 64 38 30 25 15 26 22 23 22 17 11 2 19 0 347 23 23 15 23 19 9 357 6 1 2 1 355 350 351 348 337 331 324 326 325 322 317 319 332 325 322 324 319 321 307 282 232 208 213 218
76 82 94 93 84 89 118 79 52 56 65 67 49 39 41 43 33 27 30 25 23 20 25 10 10 24 355 6 31 22 29 29 15 359 7 5 5 5 356 348 352 345 331 332 335 341 341 341 338 331 326 329 314 313 314 319 309 315 317 307 258 200 203
78 57 43 59 57 73 71 49 48 57 64 53 58 46 19 47 45 44 42 34 25 24 23 14 19 30 0 24 17 29 31 22 356 1 17 4 10 6 357 356 344 331 340 346 348 346 348 343 341 333 324 317 312 306 304 305 318 320 319 320 329 320 214
66 64 52 42 56 64 63 80 68 70 66 54 62 40 36 30 29 42 47 33 28 24 25 21 28 20 21 29 21 31 31 11 346 359 16 6 12 11 3 354 332 329 329 345 342 344 338 336 326 327 326 323 322 319 316 318 313 304 317 325 328 328 326
116 102 87 62 62 59 62 75 81 71 79 95 57 61 50 44 20 42 41 42 34 32 32 25 34 23 26 28 15 43 28 1 346 5 7 1 15 8 355 339 338 333 358 4 359 351 349 343 334 340 340 334 333 325 327 319 325 312 332 324 317 314 327
87 104 104 99 92 82 83 79 85 90 79 60 63 57 65 61 50 30 54 37 41 38 37 30 39 36 32 29 26 33 17 357 359 15 0 351 351 359 5 344 355 357 14 5 1 357 353 352 352 353 349 342 338 326 327 321 320 320 321 324 315 317 329
118 126 135 134 132 124 117 107 102 93 86 78 68 61 50 68 51 46 44 46 34 43 35 28 33 43 37 39 34 31 18 5 6 359 3 353 7 5 4 7 13 14 12 4 0 357 354 357 357 353 347 343 338 331 326 318 313 315 313 328 325 321 327
130 109 80 86 95 105 99 92 82 72 66 62 60 58 62 40 58 54 40 45 37 42 42 30 31 44 35 46 44 36 17 1 356 25 12 4 14 12 10 4 17 16 11 358 1 357 356 3 356 347 340 337 333 330 325 317 309 307 327 314 314 313 313
116 114 116 110 109 105 101 92 87 78 78 75 53 61 53 55 45 57 50 43 44 40 42 32 20 30 26 36 41 22 11 12 11 24 7 19 26 18 13 6 19 18 13 0 1 358 357 357 354 342 338 335 331 328 324 317 307 304 311 309 307 308 310
107 105 102 99 96 94 85 90 89 90 93 79 80 62 59 56 55 46 51 47 42 36 40 35 20 24 18 24 39 21 19 22 12 31 13 19 22 18 16 9 18 15 13 2 3 356 355 353 348 340 336 335 328 330 327 318 310 305 304 305 309 306 312
102 99 107 114 112 102 99 93 87 83 76 74 63 62 60 53 56 55 46 47 42 38 35 33 22 25 17 17 32 21 32 20 24 32 19 24 20 17 14 14 18 16 11 2 2 357 354 351 346 341 339 335 332 327 327 319 313 310 308 314 310 309 305
101 104 102 104 107 110 113 113 106 99 87 74 68 69 66 60 52 48 51 46 43 39 34 29 21 19 11 27 32 28 31 22 33 28 30 25 22 17 19 13 14 11 6 2 3 356 354 349 345 343 338 336 331 328 326 326 320 313 312 309 312 312 314
105 102 101 97 97 89 84 84 92 91 92 89 78 67 64 61 56 50 46 45 41 40 34 28 23 14 7 23 40 32 30 32 33 34 29 30 23 24 20 13 14 9 5 1 1 355 351 347 343 339 337 334 331 329 328 325 321 312 311 309 313 311 313
102 102 97 93 91 92 91 91 84 84 76 71 72 77 76 66 63 53 49 43 42 40 38 29 21 10 360 0 46 33 35 33 38 28 29 29 27 26 17 19 12 12 6 358 356 352 347 343 339 337 334 333 331 330 325 322 318 315 313 311 311 309 309
106 103 103 99 98 96 99 93 90 88 90 91 89 81 67 61 60 62 53 48 44 44 41 34 21 10 2 4 13 35 40 41 34 27 36 33 28 22 20 14 13 11 3 0 353 347 344 341 338 335 333 332 331 328 325 322 320 316 310 311 309 312 311
109 106 103 104 104 102 95 94 97 97 102 101 94 81 76 72 66 62 60 51 47 44 41 35 23 8 3 1 360 356 52 39 36 37 35 33 31 22 23 7 12 8 7 5 352 345 344 343 338 334 330 325 318 317 316 321 325 320 319 317 317 312 311
109 105 102 98 94 90 84 81 81 81 81 80 75 77 77 76 70 66 61 57 50 45 39 32 20 7 358 353 353 337 52 38 43 39 38 38 31 19 19 5 11 18 14 1 350 347 353 345 338 332 326 318 314 313 313 312 322 329 328 327 321 321 320
108 108 107 104 101 100 101 100 98 90 79 71 71 78 78 70 69 66 63 59 53 44 39 30 23 359 348 352 349 337 34 48 47 42 38 37 26 22 16 5 21 17 8 358 350 350 351 349 342 332 321 316 312 313 310 306 316 327 331 329 323 320 317
111 108 107 105 102 100 95 92 89 87 81 74 73 71 75 77 72 67 62 59 56 45 31 30 360 9 16 360 332 340 355 56 47 48 47 38 28 25 18 12 19 15 10 353 355 356 347 349 343 326 309 308 311 311 312 309 329 340 337 333 328 325 319
117 110 103 104 105 100 95 87 82 80 78 81 85 89 88 80 71 67 65 59 52 45 29 8 359 5 3 9 2 334 338 59 46 50 54 33 35 27 13 14 31 12 6 3 358 353 347 345 327 317 312 313 316 335 340 338 343 345 342 331 327 325 322
118 120 117 107 106 106 106 102 97 90 91 89 80 75 75 79 79 72 68 63 54 41 27 6 5 4 5 358 360 336 308 63 51 60 68 52 47 34 15 14 27 12 8 7 1 353 345 335 330 331 350 351 352 1 356 1 352 346 337 326 326 328 321
122 117 113 110 106 103 95 96 90 86 84 77 73 70 64 70 77 77 70 63 56 42 29 4 7 9 5 357 350 346 304 72 45 34 59 64 58 39 25 17 17 11 7 6 1 355 347 336 331 334 354 1 5 6 5 0 353 339 332 329 327 321 323
116 112 113 110 106 99 98 95 96 94 93 81 71 67 70 80 81 72 67 65 60 47 33 4 13 12 6 359 347 341 305 64 72 49 49 76 63 54 38 26 11 2 353 358 360 358 348 340 329 347 357 1 1 1 3 352 343 339 343 336 328 322 318
116 115 110 106 101 98 97 99 97 91 82 83 85 82 76 81 83 82 72 63 57 50 32 16 17 14 8 1 350 333 46 28 53 54 51 84 84 68 49 37 10 359 346 346 353 355 342 337 329 354 357 2 360 353 356 350 344 340 340 338 329 320 317
114 115 113 108 105 102 94 92 92 87 85 84 82 80 73 68 78 84 81 69 57 42 29 22 20 19 11 5 352 332 27 51 33 49 53 85 72 75 56 49 19 356 346 342 344 345 338 327 323 342 353 353 351 350 357 346 327 329 334 334 328 322 318
120 116 114 111 109 107 108 106 101 102 97 95 92 85 78 65 59 60 67 78 68 48 36 22 21 19 14 10 2 332 18 27 43 37 39 69 94 67 47 54 29 359 346 343 339 336 335 330 325 332 337 338 337 347 351 346 335 336 333 328 325 321 319
117 117 115 112 109 108 110 113 115 121 120 119 109 103 96 84 71 65 63 73 78 65 47 26 23 19 17 13 7 349 14 21 13 6 30 35 68 113 96 54 24 1 348 341 335 334 335 334 326 328 331 334 336 338 342 343 339 346 339 334 334 334 332
110 102 100 104 110 112 106 102 98 102 116 126 131 130 114 105 101 91 83 71 77 82 63 39 26 20 18 18 13 1 23 18 11 346 3 20 45 15 13 6 14 352 347 337 336 336 334 337 321 322 323 330 337 334 337 335 333 349 350 349 347 345 345
116 119 119 112 110 105 113 126 138 150 142 121 114 112 120 119 124 118 102 88 82 78 80 56 33 29 20 16 16 16 27 21 4 344 336 23 16 12 11 357 348 341 341 337 335 334 333 332 327 314 315 332 339 331 331 328 319 350 348 349 343 344 345
117 115 116 113 109 108 107 121 146 136 110 98 100 102 111 121 123 135 131 122 94 68 75 85 65 42 23 18 16 18 25 21 0 343 329 14 359 18 357 355 335 333 335 334 332 331 332 328 327 322 315 336 330 313 314 309 308 351 350 346 345 347 347
120 118 118 119 119 114 123 129 108 103 111 131 145 147 151 146 142 135 148 136 132 113 71 72 72 47 35 9 10 5 16 1 353 332 336 346 353 355 356 340 336 327 330 329 326 326 330 328 329 330 329 330 326 329 334 307 313 346 345 346 346 348 351
119 123 120 121 122 126 131 120 109 112 130 136 133 140 145 148 135 140 135 125 139 148 126 76 66 39 26 9 340 346 337 343 346 339 338 329 3 338 336 330 322 323 323 321 320 326 328 333 345 343 335 339 336 337 346 345 354 353 345 346 348 351 351
121 117 118 119 126 133 137 141 150 156 163 161 165 165 163 162 153 135 123 111 102 102 122 125 67 47 20 11 339 328 339 2 1 356 325 336 6 334 325 325 314 309 314 313 325 332 328 352 344 341 343 342 350 352 352 346 356 358 347 348 353 352 352